Regional Weather Roundup
Issued by NWS

Home | Current Version | Previous Version | Graphics & Text | Print | Product List | Glossary On
Versions: 1 2 3 4 5 6 7 8 9 10 11 12 13 14 15 16 17 18 19 20 21 22 23 24 25 26 27 28 29 30 31 32 33 34 35 36 37 38 39 40 41 42 43 44 45 46 47 48 49 50
294
ASUS43 KFSD 250610
RWRSD

WEATHER ROUNDUP FOR SOUTH DAKOTA
NATIONAL WEATHER SERVICE SIOUX FALLS SD
100 AM CDT THU MAY 25 2017

NOTE: "FAIR" INDICATES FEW OR NO CLOUDS BELOW 12,000 FEET WITH NO
SIGNIFICANT WEATHER AND/OR OBSTRUCTIONS TO VISIBILITY.


SDZ001>005-009-010-012>017-250700-
NORTHWEST AND NORTH CENTRAL SOUTH DAKOTA

CITY           SKY/WX    TMP DP  RH WIND       PRES   REMARKS
BUFFALO          N/A     54  47  77 N28G35    29.33R
FAITH            N/A     56  42  59 SE24      29.27R
MOBRIDGE       CLOUDY    58  42  55 SE32G44   29.36F
$$

SDZ012>016-024>037-041>051-057-063-072>074-250700-
SOUTHWEST AND SOUTH CENTRAL SOUTH DAKOTA

CITY           SKY/WX    TMP DP  RH WIND       PRES   REMARKS
RAPID CTY ARPT CLEAR     62  51  67 CALM      29.33R
PIERRE         CLOUDY    56  43  61 SE18G32   29.38F
CUSTER         CLEAR     59  40  49 W5        29.45R
ELLSWORTH AFB  CLEAR     65  52  63 N10       29.35R
PHILIP         CLOUDY    63  44  50 SE8       29.31R
PINE RIDGE     CLEAR     63  46  54 S22G37    29.37R
SPEARFISH      CLOUDY    55  50  82 NW24G32   29.48R
WINNER         FAIR      58  44  60 S23G32    29.43F
$$

SDZ004>011-016>023-039-040-250700-
NORTHEAST SOUTH DAKOTA

CITY           SKY/WX    TMP DP  RH WIND       PRES   REMARKS
ABERDEEN       PTCLDY    53  43  68 SE17G26   29.53F
WATERTOWN      CLEAR     50  42  74 SE14      29.60F
BROOKINGS      CLEAR     49  44  83 SE14      29.62F
SISSETON         N/A     46  44  93 SW8       29.61F
$$

SDZ017-020-022-023-036>040-048>070-250700-
SOUTHEAST SOUTH DAKOTA

CITY           SKY/WX    TMP DP  RH WIND       PRES   REMARKS
SIOUX FALLS    CLEAR     52  45  77 SE12      29.63F
HURON          CLEAR     52  45  77 SE13      29.55R
CHAMBERLAIN    CLEAR     55  47  75 SE15      29.50R
MITCHELL       CLEAR     54  45  71 SE20      29.56F
YANKTON        CLEAR     53  43  68 SE9       29.61F
$$

ABBREVIATIONS USED IN REMARKS
   TC - TEMPERATURE IN CELSIUS
  WCI - WIND CHILL INDEX
   HX - HEAT INDEX
  VSB - VISIBILITY





USA.gov is the U.S. government's official web portal to all federal, state and local government web resources and services.